KJ6APE Weather Reports


time (UTC)temp
C
wind
direction
speed
KPH
gust
KPH
rain 1hr
cm
rain 24hr
cm
rain mn
cm
humidity
%
barometer
mb
20260506180110 21 89 0.0 1.6 0.00 0.00 0.00 55 1020.6
20260506175606 21 94 0.0 0.0 0.00 0.00 0.00 57 1020.6
20260506175102 20 69 1.6 1.6 0.00 0.00 0.00 57 1020.7
20260506174602 20 87 0.0 1.6 0.00 0.00 0.00 58 1020.6
20260506174057 20 90 1.6 3.2 0.00 0.00 0.00 59 1020.6
20260506173555 20 77 0.0 0.0 0.00 0.00 0.00 61 1020.7
20260506173052 20 28 4.8 6.4 0.00 0.00 0.00 59 1020.7
20260506172549 20 84 0.0 0.0 0.00 0.00 0.00 59 1020.8
20260506172045 20 127 1.6 3.2 0.00 0.00 0.00 58 1020.7
20260506171543 20 69 1.6 1.6 0.00 0.00 0.00 59 1020.7
20260506171041 20 63 1.6 1.6 0.00 0.00 0.00 59 1020.6
20260506170538 19 87 0.0 0.0 0.00 0.00 0.00 59 1020.9
20260506170035 19 95 1.6 3.2 0.00 0.00 0.00 60 1020.7
20260506165534 19 89 1.6 1.6 0.00 0.00 0.00 61 1020.7
20260506165029 18 88 1.6 1.6 0.00 0.00 0.00 63 1020.9
20260506164526 18 88 0.0 0.0 0.00 0.00 0.00 65 1020.5
20260506164024 18 166 4.8 6.4 0.00 0.00 0.00 64 1020.8
20260506163520 17 89 3.2 4.8 0.00 0.00 0.00 64 1020.7
20260506163015 17 100 1.6 3.2 0.00 0.00 0.00 64 1020.9
20260506162512 17 96 1.6 3.2 0.00 0.00 0.00 67 1020.9
20260506162009 17 85 1.6 1.6 0.00 0.00 0.00 68 1020.8
20260506161507 17 94 1.6 3.2 0.00 0.00 0.00 65 1021.1
20260506161004 17 75 0.0 1.6 0.00 0.00 0.00 65 1020.9
20260506160501 17 95 0.0 1.6 0.00 0.00 0.00 66 1021.0
20260506155958 16 79 0.0 0.0 0.00 0.00 0.00 68 1021.0
20260506155457 17 104 1.6 3.2 0.00 0.00 0.00 68 1020.9
20260506153628 16 78 0.0 1.6 0.00 0.00 0.00 69 1021.1
20260506153125 16 91 1.6 1.6 0.00 0.00 0.00 68 1021.1
20260506152622 16 85 0.0 0.0 0.00 0.00 0.00 70 1021.0
20260506152120 16 131 1.6 3.2 0.00 0.00 0.00 70 1021.2
20260506151618 16 106 3.2 4.8 0.00 0.00 0.00 70 1021.1
20260506151115 16 91 1.6 1.6 0.00 0.00 0.00 71 1020.9
20260506150612 15 102 1.6 1.6 0.00 0.00 0.00 72 1021.0
20260506150109 16 71 1.6 1.6 0.00 0.00 0.00 71 1021.0
20260506145606 16 82 0.0 0.0 0.00 0.00 0.00 71 1020.9
20260506145103 15 89 0.0 0.0 0.00 0.00 0.00 72 1020.9
20260506144559 15 83 0.0 0.0 0.00 0.00 0.00 76 1021.0
20260506144056 13 87 0.0 0.0 0.00 0.00 0.00 79 1020.9
20260506143554 13 93 0.0 0.0 0.00 0.00 0.00 80 1021.1
20260506143052 13 94 0.0 0.0 0.00 0.00 0.00 81 1020.9
20260506142550 13 94 0.0 0.0 0.00 0.00 0.00 82 1020.8
20260506142048 13 94 0.0 0.0 0.00 0.00 0.00 82 1020.5
20260506141545 13 90 0.0 0.0 0.00 0.00 0.00 84 1020.8
20260506141043 12 90 0.0 0.0 0.00 0.00 0.00 85 1020.7
20260506140541 12 90 0.0 0.0 0.00 0.00 0.00 85 1020.8
20260506140038 12 89 0.0 0.0 0.00 0.00 0.00 86 1020.4
20260506135534 12 89 0.0 0.0 0.00 0.00 0.00 86 1020.4
20260506135031 12 89 0.0 0.0 0.00 0.00 0.00 87 1020.3
20260506134527 12 91 0.0 0.0 0.00 0.00 0.00 87 1020.5
20260506134023 12 91 0.0 0.0 0.00 0.00 0.00 87 1020.4
20260506133521 12 91 0.0 0.0 0.00 0.00 0.00 88 1020.3
20260506133017 12 91 0.0 0.0 0.00 0.00 0.00 87 1020.4
20260506132515 12 91 0.0 0.0 0.00 0.00 0.00 87 1020.2
20260506132012 12 91 0.0 0.0 0.00 0.00 0.00 87 1020.2
20260506131509 12 91 0.0 0.0 0.00 0.00 0.00 86 1020.1
20260506131005 12 91 0.0 0.0 0.00 0.00 0.00 86 1020.1
20260506130502 12 91 0.0 0.0 0.00 0.00 0.00 85 1020.1
20260506125959 12 91 0.0 0.0 0.00 0.00 0.00 85 1020.2
20260506125458 12 91 0.0 0.0 0.00 0.00 0.00 85 1020.0
20260506124955 12 91 0.0 0.0 0.00 0.00 0.00 84 1020.0
20260506124453 12 91 0.0 0.0 0.00 0.00 0.00 84 1020.0
20260506123951 12 91 0.0 0.0 0.00 0.00 0.00 84 1020.1
20260506123448 12 91 0.0 0.0 0.00 0.00 0.00 84 1020.0
20260506122946 12 91 0.0 0.0 0.00 0.00 0.00 84 1020.1
20260506122443 12 91 0.0 0.0 0.00 0.00 0.00 83 1019.8
20260506121941 12 91 0.0 0.0 0.00 0.00 0.00 83 1019.8
20260506121437 12 91 0.0 0.0 0.00 0.00 0.00 83 1019.9
20260506120934 12 91 0.0 0.0 0.00 0.00 0.00 84 1019.9
20260506120432 12 94 0.0 0.0 0.00 0.00 0.00 83 1019.9
20260506115929 12 94 0.0 0.0 0.00 0.00 0.00 84 1019.9
20260506115427 12 95 0.0 0.0 0.00 0.00 0.00 84 1020.0
20260506114926 12 95 0.0 0.0 0.00 0.00 0.00 84 1019.8
20260506114423 12 91 0.0 0.0 0.00 0.00 0.00 84 1019.8
20260506113921 12 91 0.0 0.0 0.00 0.00 0.00 84 1019.8
20260506113418 12 91 0.0 0.0 0.00 0.00 0.00 84 1019.8
20260506112914 12 91 0.0 0.0 0.00 0.00 0.00 84 1019.8
20260506112413 12 91 0.0 0.0 0.00 0.00 0.00 84 1019.6
20260506111909 12 91 0.0 0.0 0.00 0.00 0.00 84 1019.5
20260506111408 12 91 0.0 0.0 0.00 0.00 0.00 84 1019.6
20260506110904 12 92 0.0 0.0 0.00 0.00 0.00 84 1019.6
20260506110402 12 92 0.0 0.0 0.00 0.00 0.00 84 1019.5
20260506105858 12 92 0.0 0.0 0.00 0.00 0.00 84 1019.5
20260506105355 12 92 0.0 0.0 0.00 0.00 0.00 84 1019.3
20260506104852 12 92 0.0 0.0 0.00 0.00 0.00 84 1019.3
20260506104350 12 92 0.0 0.0 0.00 0.00 0.00 83 1019.4
20260506103848 12 92 0.0 0.0 0.00 0.00 0.00 83 1019.6
20260506103345 12 92 0.0 0.0 0.00 0.00 0.00 83 1019.4
20260506102842 12 92 0.0 0.0 0.00 0.00 0.00 83 1019.4
20260506102340 12 92 0.0 0.0 0.00 0.00 0.00 83 1019.3
20260506101837 12 94 0.0 0.0 0.00 0.00 0.00 83 1019.3
20260506101333 12 90 0.0 0.0 0.00 0.00 0.00 83 1019.3
20260506100831 12 91 0.0 0.0 0.00 0.00 0.00 83 1019.4
20260506100329 12 93 0.0 0.0 0.00 0.00 0.00 83 1019.2
20260506095827 12 93 0.0 0.0 0.00 0.00 0.00 83 1019.4
20260506095324 12 96 0.0 0.0 0.00 0.00 0.00 83 1019.4
20260506094821 12 94 0.0 0.0 0.00 0.00 0.00 84 1019.3
20260506094319 12 94 0.0 0.0 0.00 0.00 0.00 84 1019.3
20260506093817 12 95 0.0 0.0 0.00 0.00 0.00 84 1019.3
20260506093314 12 94 0.0 0.0 0.00 0.00 0.00 85 1019.2
20260506092812 12 91 0.0 0.0 0.00 0.00 0.00 85 1019.3
20260506092309 12 91 0.0 0.0 0.00 0.00 0.00 85 1019.4
20260506091806 12 94 0.0 0.0 0.00 0.00 0.00 85 1019.3
20260506091304 12 95 0.0 0.0 0.00 0.00 0.00 85 1019.1
20260506090802 12 91 0.0 0.0 0.00 0.00 0.00 86 1019.3
20260506090258 12 100 0.0 0.0 0.00 0.00 0.00 86 1019.3
20260506085755 12 87 0.0 0.0 0.00 0.00 0.00 85 1019.3
20260506085251 12 95 0.0 0.0 0.00 0.00 0.00 86 1019.3
20260506084748 11 87 0.0 0.0 0.00 0.00 0.00 86 1019.5
20260506084244 11 85 0.0 0.0 0.00 0.00 0.00 87 1019.4
20260506083741 11 85 0.0 0.0 0.00 0.00 0.00 87 1019.2
20260506083239 11 86 0.0 0.0 0.00 0.00 0.00 87 1019.2
20260506082736 11 78 0.0 0.0 0.00 0.00 0.00 87 1019.5
20260506082232 11 80 0.0 0.0 0.00 0.00 0.00 88 1019.3
20260506081730 11 96 0.0 0.0 0.00 0.00 0.00 89 1019.2
20260506081227 11 92 0.0 0.0 0.00 0.00 0.00 89 1019.2
20260506080725 11 96 0.0 0.0 0.00 0.00 0.00 89 1019.1
20260506080221 11 95 0.0 0.0 0.00 0.00 0.00 89 1019.3
20260506073205 11 91 0.0 0.0 0.00 0.00 0.00 87 1019.0
20260506072702 11 91 0.0 0.0 0.00 0.00 0.00 86 1019.1
20260506072159 11 91 0.0 0.0 0.00 0.00 0.00 86 1019.0
20260506071657 11 91 0.0 0.0 0.00 0.00 0.00 86 1019.1
20260506071155 11 90 0.0 0.0 0.00 0.00 0.00 85 1018.9
20260506070651 11 79 0.0 0.0 0.00 0.00 0.00 85 1019.0
20260506070148 11 95 0.0 0.0 0.00 0.00 0.00 85 1019.0
20260506062125 12 91 0.0 0.0 0.00 0.28 0.28 80 1018.5
20260506061621 12 99 0.0 1.6 0.00 0.28 0.28 80 1018.4
20260506061119 12 98 0.0 0.0 0.00 0.28 0.28 79 1018.7
20260506060618 13 136 4.8 4.8 0.00 0.28 0.28 79 1018.5
20260506060114 13 105 1.6 3.2 0.00 0.28 0.28 79 1018.4
20260506051046 13 96 1.6 1.6 0.00 0.28 0.28 76 1018.0
20260506050544 13 115 1.6 1.6 0.00 0.28 0.28 75 1017.9
20260506045034 14 120 3.2 3.2 0.00 0.28 0.28 75 1017.8
20260506044532 14 131 3.2 4.8 0.00 0.28 0.28 75 1018.0
20260506044029 14 102 1.6 1.6 0.00 0.28 0.28 75 1017.9
20260506043526 14 93 0.0 0.0 0.00 0.28 0.28 75 1017.8
20260506043024 14 87 0.0 0.0 0.00 0.28 0.28 74 1017.7
20260506042523 14 142 4.8 6.4 0.00 0.28 0.28 73 1017.6
20260506042021 14 85 1.6 3.2 0.00 0.28 0.28 73 1017.8
20260506041519 14 341 3.2 6.4 0.00 0.28 0.28 74 1017.4
20260506041015 14 80 0.0 1.6 0.00 0.28 0.28 74 1017.4
20260506040514 14 105 1.6 1.6 0.00 0.28 0.28 74 1017.2
20260506040009 15 96 0.0 1.6 0.00 0.28 0.28 75 1017.3
20260506035506 15 92 0.0 0.0 0.00 0.28 0.28 75 1017.2
20260506035003 15 329 3.2 4.8 0.00 0.28 0.28 74 1017.2
20260506034500 15 100 1.6 4.8 0.00 0.28 0.28 74 1017.1
20260506033957 15 89 1.6 3.2 0.00 0.28 0.28 74 1017.1
20260506033455 15 100 1.6 1.6 0.00 0.28 0.28 73 1016.9
20260506032951 15 103 1.6 1.6 0.00 0.28 0.28 73 1016.9
20260506032449 15 185 6.4 9.7 0.00 0.28 0.28 72 1017.0
20260506031945 15 84 0.0 1.6 0.00 0.28 0.28 73 1016.6
20260506031442 15 93 0.0 0.0 0.00 0.28 0.28 72 1016.5
20260506030940 15 96 1.6 1.6 0.00 0.28 0.28 72 1016.6
20260506030438 15 86 0.0 0.0 0.00 0.28 0.28 72 1016.4
20260506025934 15 75 1.6 3.2 0.00 0.28 0.28 71 1016.5
20260506025431 15 56 3.2 3.2 0.00 0.28 0.28 71 1016.4
20260506024928 15 179 8.0 9.7 0.00 0.28 0.28 70 1016.3
20260506024425 15 81 1.6 1.6 0.00 0.28 0.28 70 1016.3
20260506023921 15 142 1.6 3.2 0.00 0.28 0.28 70 1016.3
20260506023418 15 101 3.2 4.8 0.00 0.28 0.28 70 1016.3
20260506022914 15 94 1.6 1.6 0.00 0.28 0.28 70 1016.3
20260506022412 15 178 3.2 3.2 0.00 0.28 0.28 70 1016.2
20260506021910 15 208 9.7 14.5 0.00 0.28 0.28 70 1016.1
20260506021407 16 83 0.0 1.6 0.00 0.28 0.28 70 1016.0
20260506020903 16 95 0.0 1.6 0.00 0.28 0.28 70 1016.1
20260506020402 16 71 3.2 4.8 0.00 0.28 0.28 70 1016.0
20260506015859 16 129 4.8 9.7 0.00 0.28 0.28 69 1015.8
20260506015356 16 138 4.8 6.4 0.00 0.28 0.28 69 1015.7
20260506014853 16 87 1.6 3.2 0.00 0.28 0.28 69 1015.9
20260506014350 16 185 4.8 9.7 0.00 0.28 0.28 69 1015.8
20260506013846 16 74 0.0 1.6 0.00 0.28 0.28 70 1015.9
20260506013344 16 127 1.6 3.2 0.00 0.28 0.28 69 1015.6
20260506012840 16 194 1.6 4.8 0.00 0.28 0.28 69 1015.7
20260506012337 16 183 3.2 4.8 0.00 0.28 0.28 68 1015.6
20260506011834 16 180 3.2 4.8 0.00 0.28 0.28 69 1015.9
20260506011331 16 164 4.8 4.8 0.00 0.28 0.28 69 1015.8
20260506010828 17 141 4.8 6.4 0.00 0.28 0.28 69 1015.8
20260506010326 17 139 4.8 6.4 0.00 0.28 0.28 68 1015.7
20260506005823 17 153 1.6 1.6 0.00 0.28 0.28 68 1015.6
20260506005320 17 160 3.2 4.8 0.00 0.28 0.28 66 1015.7
20260506004816 18 110 3.2 4.8 0.00 0.28 0.28 66 1015.5
20260506004314 17 80 1.6 1.6 0.00 0.28 0.28 68 1015.7
20260506003809 17 141 3.2 4.8 0.00 0.28 0.28 67 1015.6
20260506003306 17 149 9.7 11.3 0.00 0.28 0.28 66 1015.5
20260506002802 17 82 4.8 9.7 0.00 0.28 0.28 67 1015.4
20260506002259 17 183 6.4 11.3 0.00 0.28 0.28 67 1015.5
20260506001754 17 102 3.2 4.8 0.00 0.28 0.28 68 1015.5
20260506001252 17 170 3.2 4.8 0.00 0.28 0.28 68 1015.5
20260506000749 17 169 3.2 6.4 0.00 0.28 0.28 68 1015.3
20260506000247 17 183 4.8 12.9 0.00 0.28 0.28 67 1015.4
20260505235743 17 49 4.8 4.8 0.00 0.28 0.28 67 1015.5
20260505235241 17 149 4.8 4.8 0.00 0.28 0.28 67 1015.4
20260505234737 17 144 1.6 3.2 0.00 0.28 0.28 67 1015.4
20260505234235 17 169 8.0 11.3 0.00 0.28 0.28 66 1015.3
20260505233731 17 141 4.8 9.7 0.00 0.28 0.28 66 1015.5
20260505233230 17 190 6.4 6.4 0.00 0.28 0.28 66 1015.4
20260505232726 17 104 1.6 3.2 0.00 0.28 0.28 67 1015.5
20260505232224 17 182 3.2 4.8 0.00 0.28 0.28 67 1015.5
20260505231720 17 99 0.0 0.0 0.00 0.28 0.28 67 1015.5
20260505231219 17 98 0.0 0.0 0.00 0.28 0.28 67 1015.4
20260505230717 17 86 0.0 1.6 0.00 0.28 0.28 67 1015.7
20260505230213 17 112 3.2 3.2 0.00 0.28 0.28 68 1015.6
20260505225710 17 144 4.8 4.8 0.00 0.28 0.28 67 1015.6
20260505225207 17 153 3.2 3.2 0.00 0.28 0.28 68 1015.5
20260505224702 17 87 0.0 1.6 0.00 0.28 0.28 67 1015.6
20260505224200 17 87 0.0 1.6 0.00 0.28 0.28 67 1015.7
20260505223658 17 92 0.0 1.6 0.00 0.28 0.28 67 1015.4
20260505223153 17 131 4.8 6.4 0.00 0.28 0.28 67 1015.5
20260505222649 17 83 1.6 3.2 0.00 0.28 0.28 67 1015.6
20260505222146 17 80 0.0 1.6 0.00 0.28 0.28 68 1015.7
20260505221643 17 96 1.6 1.6 0.00 0.28 0.28 69 1015.6
20260505221139 17 85 0.0 0.0 0.00 0.28 0.28 69 1015.6
20260505220637 17 80 1.6 3.2 0.00 0.28 0.28 68 1015.7
20260505220135 17 109 3.2 4.8 0.00 0.28 0.28 69 1016.0
20260505215632 17 95 1.6 3.2 0.00 0.28 0.28 70 1015.7
20260505215130 17 93 4.8 6.4 0.00 0.28 0.28 69 1015.7
20260505214628 17 184 4.8 6.4 0.00 0.28 0.28 69 1015.5
20260505214125 17 82 0.0 0.0 0.00 0.28 0.28 69 1015.8
20260505213622 17 90 0.0 0.0 0.00 0.28 0.28 70 1015.7
20260505213119 17 105 1.6 1.6 0.00 0.28 0.28 69 1015.7
20260505212615 17 76 0.0 0.0 0.00 0.28 0.28 70 1015.8
20260505212113 17 90 1.6 1.6 0.00 0.28 0.28 69 1016.0
20260505211609 17 112 0.0 1.6 0.00 0.28 0.28 69 1016.1
20260505211107 17 79 0.0 1.6 0.00 0.28 0.28 69 1016.0
20260505210603 17 84 0.0 0.0 0.00 0.28 0.28 69 1016.0
20260505210100 17 115 1.6 1.6 0.00 0.28 0.28 69 1015.9
20260505205558 17 168 3.2 4.8 0.00 0.28 0.28 68 1015.9
20260505205055 17 116 3.2 3.2 0.00 0.28 0.28 67 1016.0
20260505204552 17 93 0.0 0.0 0.00 0.28 0.28 68 1016.1
20260505204049 17 84 0.0 0.0 0.00 0.28 0.28 69 1015.9
20260505203546 17 87 0.0 0.0 0.00 0.28 0.28 72 1016.1
20260505203043 16 120 3.2 3.2 0.00 0.28 0.28 69 1016.1
20260505202539 16 79 0.0 0.0 0.00 0.28 0.28 71 1016.1
20260505202035 16 93 1.6 1.6 0.00 0.28 0.28 72 1016.0
20260505201532 16 179 1.6 3.2 0.00 0.28 0.28 71 1016.0
20260505201030 16 116 1.6 1.6 0.00 0.28 0.28 72 1016.1
20260505200527 16 109 3.2 3.2 0.00 0.28 0.28 70 1016.1
20260505200024 16 92 1.6 3.2 0.00 0.28 0.28 70 1016.3
20260505195520 16 86 0.0 0.0 0.00 0.28 0.28 72 1016.3
20260505195018 16 108 1.6 1.6 0.00 0.28 0.28 72 1016.4
20260505194516 16 66 1.6 1.6 0.00 0.28 0.28 70 1016.3
20260505194016 16 78 1.6 1.6 0.00 0.28 0.28 71 1016.1
20260505193514 16 89 0.0 0.0 0.00 0.28 0.28 71 1016.3
20260505193011 16 94 0.0 0.0 0.00 0.28 0.28 72 1016.3
20260505192509 16 89 0.0 0.0 0.00 0.28 0.28 72 1016.2
20260505192006 16 91 0.0 0.0 0.00 0.28 0.28 74 1016.2
20260505191504 16 71 0.0 0.0 0.00 0.28 0.28 74 1016.1
20260505191002 16 97 1.6 1.6 0.00 0.28 0.28 73 1016.4
20260505190456 16 31 1.6 3.2 0.00 0.28 0.28 72 1016.4
20260505185952 16 91 0.0 0.0 0.00 0.28 0.28 73 1016.2
20260505185450 16 86 0.0 0.0 0.00 0.28 0.28 72 1016.1
20260505184946 16 75 1.6 1.6 0.00 0.28 0.28 72 1016.1
20260505184443 16 78 1.6 1.6 0.00 0.28 0.28 74 1016.2
20260505183939 15 45 3.2 3.2 0.00 0.28 0.28 75 1016.1
20260505183436 15 56 1.6 1.6 0.00 0.28 0.28 76 1016.1
20260505182933 15 282 3.2 4.8 0.00 0.28 0.28 75 1016.1
20260505182430 15 87 1.6 1.6 0.00 0.28 0.28 75 1015.9
20260505181926 15 167 4.8 4.8 0.00 0.28 0.28 76 1016.2
20260505181424 15 90 0.0 0.0 0.00 0.28 0.28 75 1016.2
20260505180920 15 51 1.6 1.6 0.00 0.28 0.28 77 1016.3